Find Praetorian SDA-618

NORAD ID: 65581 Int'l Des: 2025-203 Owner: SDA Country: US operational
LEOCIRCULARPOLAR

当前视图

正在加载3D地球...

About Praetorian SDA-618

Praetorian SDA-618 (NORAD 65581) is a satellite launched Sep 10, 2025 by SDA of US. It operates in LEO, CIRCULAR, POLAR orbit with a mass of 300.00 kg.

即将过境

Passes for default location (London). Set your location on the main map for personalized predictions.

高度历史

Loading altitude history...

两行轨道根数

1 65581U 25203S 26195.51473951 .00000116 00000-0 92869-4 0 9991
2 65581 81.3031 345.1676 0010923 118.5632 241.6625 13.84226379 42496
Epoch: Jul 14, 2026 • Age: 8 hours

当前状态

高度 965.3 km
远地点 / 近地点 N/A
速度 7.37 km/s
星下点 -38.92°S, 66.01°W
发射日期 Sep 10, 2025
运行时间 0.8 years
类型 other

技术详情

分类 Payload
质量 300.00 kg
干质量 300.00 kg
总质量 300.00 kg
长度 1.00 m
直径 0.60 m
跨度 2.00 m
形状 Box + panels
制造商 YORKSS
平台类型 S-Class
阶段状态 In Orbit
所有者/国家 SDA/US

Most Searched